Ciudad Victoria, Mexico

2:14 PM CDT on May 29, 2017 (GMT -0500)
Ciudad Victoria

Weather History for MMCV - November, 2012

Change the Weather History Date:

Saturday, November 17, 2012

  Actual Average Record
Temperature  
Mean Temperature 61 °F -  
Max Temperature 65 °F 76 °F 89 °F (2003)
Min Temperature 57 °F 55 °F 39 °F (2008)
Degree Days  
Heating Degree Days 4    
Growing Degree Days 11 (Base 50)    
Moisture  
Dew Point 60 °F    
Average Humidity 92    
Maximum Humidity 100    
Minimum Humidity 73    
Precipitation  
Precipitation 0.12 in - - ()
Sea Level Pressure  
Sea Level Pressure 30.30 in    
Wind  
Wind Speed 3 mph ()    
Max Wind Speed 9 mph    
Max Gust Speed -    
Visibility 3.7 miles    
Events Rain    
Averages and records for this station are not official NWS values.
T = Trace of Precipitation, MM = Missing Value Source: Averaged Metar Reports

Daily Weather History Graph

Daily Weather History Graph

Search for Another Location

Airport or City:

Trip Planner

Search our weather history database for the weather conditions in past years. The results will help you decide how hot, cold, wet, or windy it might be!

Date:

Astronomy

Nov. 17, 2012 Rise Set
Actual Time 6:52 AM CST 5:49 PM CST
Civil Twilight 6:28 AM CST 6:13 PM CST
Nautical Twilight 6:00 AM CST 6:40 PM CST
Astronomical Twilight 5:33 AM CST 7:08 PM CST
Moon 10:37 AM CST (11/17) 9:59 PM CST (11/17)
Length of Visible Light 11h 45m
Length of Day
10h 57m
Waxing Crescent, 20% of the Moon is Illuminated
Nov 17
Waxing Crescent
Nov 20
First Quarter
Nov 28
Full
Dec 6
Last Quarter
Dec 13
New

Hourly Weather History & Observations

Time (CST) Temp. Dew Point Humidity Pressure Visibility Wind Dir Wind Speed Gust Speed Precip Events Conditions
5:45 AM 58 °F 58 °F 100% 30.33 in 4 mi North 2.2 mph - - Rain Light Drizzle
6:09 AM 57.2 °F 57.2 °F 100% 30.31 in 1.0 mi NNW 4.6 mph - N/A   Light Drizzle
6:44 AM 57.2 °F 57.2 °F 100% 30.28 in 1.0 mi WNW 6.9 mph - N/A   Light Drizzle
7:47 AM 57.2 °F 57.2 °F 100% 30.29 in 1.5 mi WNW 3.5 mph - N/A   Overcast
8:49 AM 59.0 °F 59.0 °F 100% 30.33 in 1.0 mi NNW 4.6 mph - N/A   Overcast
9:00 AM 60 °F 60 °F 98% 30.38 in 5 mi Calm Calm - -   Overcast
9:45 AM 60.8 °F 60.8 °F 100% 30.33 in 2.0 mi NNW 3.5 mph - N/A   Overcast
10:12 AM 62.6 °F 62.6 °F 100% 30.32 in 3.0 mi NW 2.3 mph - N/A   Overcast
10:40 AM 64.4 °F 62.6 °F 94% 30.32 in 6.0 mi West 3.5 mph - N/A   Overcast
11:43 AM 64.4 °F 60.8 °F 88% 30.34 in 6.0 mi NW 4.6 mph - N/A   Overcast
11:50 AM 65 °F 63 °F 91% 30.37 in 6 mi Calm Calm - - Rain Light Drizzle
12:45 PM 66.2 °F 59.0 °F 78% 30.28 in 6.0 mi North 8.1 mph - N/A   Overcast
1:41 PM 66.2 °F 59.0 °F 78% 30.25 in 5.0 mi NNE 2.3 mph - N/A   Overcast
2:44 PM 66.2 °F 59.0 °F 78% 30.27 in 6.0 mi NW 4.6 mph - N/A   Overcast
2:50 PM 65 °F 63 °F 91% 30.30 in 5 mi Calm Calm - -   Overcast
3:51 PM 66.2 °F 57.2 °F 73% 30.24 in 6.0 mi Calm Calm - N/A   Overcast
4:47 PM 66.2 °F 59.0 °F 78% 30.24 in 6.0 mi NNW 4.6 mph - N/A   Overcast
5:44 PM 64.4 °F 60.8 °F 88% 30.28 in 5.0 mi NNW 5.8 mph - N/A   Overcast
5:45 PM 64 °F 63 °F 94% 30.29 in 5 mi SSE 2.2 mph - -   Overcast
6:46 PM 62.6 °F 59.0 °F 88% 30.28 in 1.0 mi North 9.2 mph - N/A   Light Drizzle
7:40 PM 60.8 °F 60.8 °F 100% 30.29 in 1.5 mi North 3.5 mph - N/A   Overcast
8:48 PM 60.8 °F 60.8 °F 100% 30.32 in 1.0 mi NNW 4.6 mph - N/A   Light Drizzle
9:44 PM 60.8 °F 60.8 °F 100% 30.29 in 1.0 mi Calm Calm - N/A   Light Drizzle